Theta_e
352 348 346 351 357 357 355 358 357 357 357 358 360 359 357 357 359 361 364 367 370 371 372 371 370 369 368 368 367 365 365 364 363 363 364 363 361 359 358 357 356 354 353 351 350 350 349 348 346 345 347 345 343 344 344 344 343 340 340 340 340 340 340
352 349 347 352 357 358 356 357 358 358 357 357 359 359 357 357 359 361 363 367 370 371 373 372 371 370 369 369 368 367 366 365 364 364 364 364 362 361 360 358 357 356 354 352 351 350 348 348 346 345 346 344 343 344 344 344 343 341 340 340 340 340 340
349 350 351 354 358 359 358 357 359 359 357 357 358 359 359 359 360 361 362 367 371 371 372 373 372 371 370 370 369 368 368 366 365 365 364 363 363 362 360 359 358 357 356 355 353 350 348 348 347 345 345 345 344 344 344 343 343 342 341 340 340 340 339
344 349 353 357 358 360 360 358 359 361 358 358 360 361 362 361 362 362 363 367 371 371 372 373 372 371 370 370 369 369 369 367 365 365 365 364 363 362 361 360 360 358 357 356 353 350 348 348 347 346 345 345 345 344 344 343 342 342 342 341 340 339 339
348 351 353 357 357 359 360 359 360 361 360 359 361 363 363 363 365 364 364 368 369 370 371 372 371 371 371 371 369 369 369 368 367 366 365 364 363 363 362 361 360 359 357 356 353 350 349 348 348 347 345 345 345 344 344 344 342 342 342 341 340 340 339
346 349 353 356 357 359 359 359 360 361 360 360 362 363 364 365 365 365 365 367 368 369 370 371 371 371 372 371 369 369 369 369 368 367 366 365 364 364 363 362 361 359 357 356 354 351 350 349 347 346 345 344 345 344 344 343 343 343 343 341 340 340 340
342 348 354 357 357 358 358 359 360 362 361 359 361 364 364 364 364 363 363 366 367 369 369 369 370 371 371 371 370 369 369 369 369 368 367 366 365 365 364 363 362 360 358 356 354 352 351 348 345 345 345 344 344 343 342 343 343 343 343 341 340 340 341
340 347 354 357 357 356 358 359 359 361 362 359 360 363 363 362 363 361 361 364 366 367 368 367 369 370 371 371 370 370 369 369 370 369 368 367 366 366 365 363 362 360 359 357 355 354 352 348 344 344 345 344 344 342 342 343 343 343 343 342 341 342 341
345 354 357 356 353 354 357 359 360 362 363 361 360 363 363 361 361 360 360 362 364 365 365 365 367 370 371 370 370 371 370 369 370 370 368 367 366 366 364 362 361 360 359 357 356 354 351 347 344 343 345 345 345 343 341 343 344 343 343 343 342 342 341
349 359 361 357 353 354 356 357 363 365 366 366 365 363 363 362 361 360 360 362 363 363 364 363 364 368 371 372 371 371 370 369 369 370 368 367 367 365 363 360 360 360 359 357 356 354 351 347 344 344 345 345 344 342 341 342 343 343 342 341 341 341 340
350 360 365 361 356 357 355 359 367 370 371 372 367 364 365 363 361 361 361 362 361 362 363 363 363 367 370 371 370 370 371 370 369 370 368 367 366 364 362 359 359 360 359 358 356 353 350 346 343 344 347 345 344 343 342 342 342 342 341 340 340 340 340
356 365 368 364 360 359 361 367 371 372 374 372 366 365 366 365 363 362 362 362 360 361 363 363 362 366 370 371 369 369 371 370 369 369 369 368 365 363 361 359 359 360 359 359 357 353 350 346 343 346 347 344 343 343 342 341 341 342 341 339 340 340 339
364 368 368 364 361 361 365 370 371 370 371 370 366 365 366 366 364 363 364 363 361 361 363 364 364 365 370 371 369 369 370 371 370 369 369 368 365 362 360 359 360 360 358 358 356 353 349 345 346 348 347 343 341 340 339 339 341 343 341 338 339 339 338
368 367 367 364 362 363 365 368 370 370 369 369 368 366 367 367 365 365 365 364 362 362 364 365 365 366 370 371 369 370 371 371 371 370 369 367 365 362 360 360 360 360 359 357 354 353 349 346 347 348 345 342 340 339 338 339 341 343 341 337 337 338 339
365 364 365 363 362 364 365 367 370 371 370 369 369 368 368 368 366 366 367 366 364 362 364 366 367 367 371 372 371 371 371 372 372 370 368 366 365 363 362 361 361 360 359 357 354 352 349 346 346 345 342 339 338 339 339 340 341 341 340 338 337 338 341
355 358 361 364 365 365 366 368 371 372 371 371 369 369 370 369 368 368 367 367 365 362 364 367 368 369 371 371 372 372 372 373 372 370 368 366 365 364 363 362 361 360 359 357 355 352 349 346 344 341 338 337 337 340 341 341 340 337 336 338 339 339 340
342 344 346 356 363 366 366 369 372 373 372 371 370 371 371 370 370 369 368 368 366 365 365 368 370 371 371 372 373 373 373 372 371 369 368 365 365 364 363 362 360 360 359 357 356 353 348 345 342 340 338 337 337 339 339 340 339 332 328 334 338 339 338
338 338 339 347 362 369 368 369 372 374 372 370 371 371 371 371 371 369 369 370 368 367 367 370 372 372 372 374 374 373 372 371 370 369 366 365 364 362 361 361 360 360 359 356 356 353 347 344 342 339 338 337 337 338 337 339 339 330 323 326 331 333 335
336 337 338 344 356 365 368 367 369 372 373 371 372 371 370 371 372 370 370 371 370 368 368 371 373 373 374 374 373 373 372 370 369 368 366 364 363 360 360 359 359 360 358 356 355 351 346 344 341 337 336 337 338 337 337 341 342 334 325 325 327 329 331
337 337 338 341 346 355 366 369 368 370 373 372 370 370 370 371 372 371 371 371 371 370 369 371 373 374 375 374 373 372 370 369 368 366 365 364 362 360 359 359 359 360 357 356 355 350 346 342 339 337 337 339 339 337 338 343 342 333 326 326 328 328 329
341 340 338 344 348 353 364 370 368 369 372 370 369 369 370 371 372 371 371 373 372 371 371 372 373 375 375 374 373 371 369 368 366 364 365 364 360 360 359 358 359 359 356 356 355 351 347 342 339 337 338 339 338 337 339 341 337 327 324 327 329 330 329
337 336 338 348 355 362 369 369 367 370 370 369 369 369 369 371 372 372 372 374 373 372 372 372 373 375 375 374 373 370 368 367 365 362 363 362 360 360 359 358 358 357 357 356 354 352 348 342 338 339 340 341 341 339 338 337 332 325 325 328 330 331 329
334 335 339 345 353 365 371 368 367 370 369 368 369 369 369 371 372 373 374 373 373 373 373 373 373 375 375 374 373 370 368 367 364 361 361 361 360 359 357 357 357 356 356 355 353 352 348 343 341 342 343 343 341 337 335 334 332 330 330 330 330 329 329
335 335 342 349 356 366 370 368 368 368 368 369 369 368 369 371 371 373 373 373 373 373 373 373 373 374 374 373 372 370 368 366 363 360 359 359 359 357 355 356 355 355 355 353 352 350 348 345 343 343 342 340 336 333 330 330 333 334 333 331 329 327 329
337 336 344 353 359 365 367 365 366 367 368 370 369 368 370 370 371 373 372 372 371 371 371 371 371 372 373 372 370 368 366 363 361 360 358 358 357 356 355 355 354 354 353 351 350 348 347 344 342 341 340 336 332 330 328 329 334 335 333 331 328 325 328
341 338 343 352 357 363 365 365 367 369 370 369 367 367 367 369 372 372 369 368 368 368 369 369 369 371 371 370 369 367 364 361 360 358 356 356 356 356 355 354 354 352 350 349 347 344 342 341 338 338 339 336 333 331 330 330 334 335 333 332 330 328 329
345 345 349 355 360 364 366 367 369 368 366 365 364 364 366 369 371 369 366 367 367 367 368 368 369 371 370 368 367 365 361 359 358 357 355 355 356 355 353 353 353 350 348 347 344 340 338 338 336 336 338 338 335 333 331 331 334 334 334 335 334 333 334
349 352 355 357 361 364 365 365 365 363 363 363 363 363 367 369 369 367 367 367 367 368 368 369 369 370 368 366 365 362 359 357 356 355 355 354 355 354 353 352 352 350 347 345 342 338 336 336 335 335 338 339 337 334 333 334 335 337 338 337 337 337 336
354 356 358 361 362 362 363 364 363 364 364 364 364 366 368 368 368 368 368 368 368 368 368 368 368 368 366 364 362 360 358 356 354 353 353 353 353 353 352 351 349 347 345 342 339 336 335 334 334 336 339 339 338 336 336 337 338 339 340 338 338 339 337
358 360 362 362 361 361 362 364 366 366 365 365 366 368 368 368 368 368 368 368 367 366 367 367 365 365 363 362 361 359 356 354 353 351 351 352 352 352 351 349 346 345 343 341 339 337 336 336 335 337 340 339 338 339 339 340 339 338 337 337 337 337 336
360 360 360 360 361 363 365 367 368 366 366 367 368 367 367 368 368 368 368 367 365 365 365 364 362 361 361 359 359 357 355 353 352 351 351 351 351 351 350 347 346 344 342 341 341 340 340 339 339 340 341 340 340 340 340 340 339 337 336 336 335 334 334
361 361 362 364 365 366 365 365 366 366 367 366 364 365 366 367 366 367 365 364 363 364 363 361 360 360 359 358 357 355 353 352 351 351 351 350 350 350 348 346 345 344 342 342 342 342 343 342 341 341 340 339 340 340 339 339 339 336 335 336 335 333 333
361 360 362 362 362 361 361 361 362 363 365 365 364 364 364 363 363 363 362 362 362 361 361 360 359 358 357 356 355 353 351 350 350 350 350 349 348 348 347 345 345 344 344 343 343 343 343 342 341 341 340 339 340 340 340 340 338 336 335 335 334 333 332
361 361 361 361 361 362 362 362 362 362 363 364 363 362 361 360 360 360 359 359 359 359 359 358 356 355 355 353 352 351 349 350 350 349 349 348 347 346 346 346 345 345 345 344 344 344 343 341 341 340 339 339 340 340 340 339 338 337 335 334 333 332 331
359 359 361 361 361 361 362 362 361 361 361 360 360 359 359 358 358 357 358 358 357 357 356 354 353 354 353 351 350 349 348 348 349 348 347 345 342 341 342 341 342 343 344 343 343 343 342 340 340 340 338 338 339 340 340 339 338 337 335 333 332 332 331
354 355 357 358 357 357 359 359 358 358 357 357 357 357 357 356 356 356 356 356 356 355 354 353 352 352 350 349 348 347 347 347 348 347 346 342 339 337 336 336 338 340 341 340 340 341 340 339 339 338 338 339 339 339 339 339 338 336 334 333 332 332 332
350 350 353 355 355 356 356 356 357 358 357 356 356 355 354 354 353 353 353 354 354 354 353 352 351 350 349 348 346 346 346 346 346 348 345 339 336 335 334 333 334 336 337 338 339 339 338 339 339 339 339 339 339 337 337 337 337 336 334 333 332 331 331
350 349 350 352 354 355 355 355 356 356 355 355 354 353 352 352 352 351 352 353 353 354 353 352 351 350 348 346 346 346 345 346 347 348 344 338 335 334 333 332 332 332 333 336 338 338 338 338 338 338 338 337 335 334 335 336 336 334 333 333 332 330 329
Wind_Speed
16 16 16 17 18 19 19 20 21 23 27 29 30 32 33 32 31 29 28 29 30 29 29 28 27 27 26 26 25 24 23 22 21 20 20 20 19 18 17 16 15 15 14 14 13 13 13 12 12 11 11 10 9 9 9 9 8 7 6 6 6 5 5
17 16 18 19 19 20 21 21 22 25 28 30 31 32 33 32 32 31 29 30 30 30 30 29 28 27 27 26 25 25 24 23 22 21 20 20 19 19 18 18 17 15 15 15 14 13 13 13 13 12 12 11 11 11 10 10 10 8 7 7 6 6 6
15 16 18 20 19 19 21 21 22 26 29 30 32 32 33 33 33 33 31 30 30 30 29 29 29 28 27 26 25 25 25 25 23 23 22 21 20 20 19 18 17 16 16 16 15 14 14 14 14 13 12 12 11 11 11 11 11 10 8 8 8 7 7
14 17 18 19 20 19 20 21 22 26 31 33 34 34 34 35 34 34 32 30 31 30 30 30 29 28 27 26 26 26 26 26 25 24 23 22 21 21 20 19 19 18 17 17 17 15 15 15 15 14 14 13 12 12 12 12 12 11 10 9 8 8 7
13 14 16 18 19 18 18 20 22 26 31 33 34 34 34 34 34 33 32 31 31 31 31 30 28 27 26 26 26 26 26 26 25 24 24 22 22 22 21 21 21 20 19 19 19 18 17 17 17 16 15 14 14 14 15 14 14 13 13 12 12 10 9
11 12 15 16 17 18 19 21 23 28 31 33 34 33 33 34 34 33 32 31 31 31 30 29 28 27 27 27 27 26 25 26 25 25 25 23 23 23 22 22 22 22 21 21 21 20 20 20 19 18 17 17 17 17 18 18 18 17 16 15 15 13 11
14 14 16 16 16 18 20 20 22 28 31 32 32 32 32 33 33 33 32 31 31 31 31 30 29 29 28 28 28 27 26 26 26 26 25 25 24 24 23 23 23 22 22 22 23 23 23 22 21 21 20 20 19 20 20 20 20 19 17 16 15 13 12
16 14 15 16 16 17 18 18 20 24 28 30 31 32 33 33 32 33 32 31 31 31 31 31 31 30 30 29 28 28 27 26 27 27 26 26 26 25 25 24 24 23 23 24 25 25 26 25 24 23 22 21 21 20 20 20 19 18 17 17 15 14 12
14 14 14 15 16 16 16 16 17 20 24 28 29 31 32 33 32 32 32 31 31 31 32 32 31 30 30 29 28 28 28 27 27 27 28 28 27 27 27 26 25 25 25 27 27 26 27 26 25 25 24 23 22 21 20 19 19 18 18 17 16 15 13
10 13 13 13 13 13 13 15 15 16 18 21 24 28 31 31 31 31 32 31 31 31 32 32 31 30 30 29 28 28 28 28 27 28 29 29 28 28 28 26 26 26 27 28 28 27 27 27 26 26 26 24 23 23 21 19 19 19 19 18 17 16 14
8 9 11 12 12 12 13 14 14 13 13 15 21 25 28 29 30 31 31 32 31 31 31 31 30 30 29 29 28 28 28 29 28 29 30 30 29 28 28 27 26 27 28 29 29 27 28 28 27 28 28 26 24 23 21 21 21 20 20 19 18 18 17
9 9 10 12 12 12 13 12 13 14 13 15 21 25 25 27 29 30 30 31 31 30 30 31 30 30 29 28 28 29 29 29 29 30 31 31 29 28 28 27 26 27 28 29 28 27 28 28 28 28 28 26 24 23 22 22 23 22 21 20 19 20 19
10 10 10 12 12 12 12 11 13 15 15 17 22 24 24 26 28 28 29 30 30 29 29 30 30 29 29 28 28 29 29 30 30 30 30 30 29 27 27 27 27 27 28 28 28 27 28 28 28 28 28 28 27 24 23 24 23 22 23 23 21 20 19
12 12 12 12 12 13 13 12 14 16 16 17 21 23 24 25 26 26 27 29 29 28 28 28 29 29 29 28 28 28 28 29 29 29 29 28 27 26 26 26 26 27 28 28 29 29 28 28 28 27 27 27 26 24 24 24 23 22 23 25 24 22 19
14 13 13 14 14 14 14 14 14 16 17 18 20 23 24 24 25 25 25 27 28 27 27 27 28 28 28 27 26 26 26 26 26 27 26 25 25 26 26 26 25 26 27 28 30 29 28 28 28 27 28 28 27 25 25 25 23 24 24 25 26 22 18
14 13 13 14 14 14 14 15 16 16 17 17 19 22 24 23 24 25 25 26 27 26 26 26 27 28 27 26 25 25 25 25 25 24 24 24 24 24 24 24 24 25 26 27 29 28 27 27 28 28 30 32 30 27 25 23 24 27 28 27 26 22 18
14 13 11 11 12 14 14 15 16 17 18 19 20 23 24 23 24 25 25 25 26 26 26 26 27 27 26 25 24 24 24 25 24 23 23 23 23 23 22 22 22 23 25 26 28 28 27 27 29 29 30 32 31 29 26 24 25 30 32 30 26 22 19
13 13 11 8 9 12 14 16 17 19 20 20 22 25 25 24 24 25 25 25 26 26 26 26 26 26 25 24 23 24 24 24 23 22 22 22 23 24 22 20 20 22 23 24 26 27 25 26 28 29 28 29 29 29 27 25 26 31 33 31 28 24 20
15 15 14 9 9 11 15 16 17 19 19 19 23 27 26 25 25 24 24 25 25 26 26 25 25 25 24 23 23 24 23 23 22 22 22 22 22 23 22 21 22 22 21 23 25 25 23 25 27 27 26 26 26 27 26 24 25 30 30 29 29 25 20
18 18 17 11 9 11 14 15 15 17 20 21 23 26 26 24 23 23 23 24 25 26 26 25 24 23 23 23 23 23 23 23 22 22 21 21 21 21 20 21 23 22 22 23 24 24 23 24 26 26 24 24 25 25 23 21 24 28 28 28 27 23 20
18 18 17 11 10 13 14 15 14 16 19 22 24 25 25 24 23 24 24 24 25 25 25 24 23 22 22 22 22 22 22 22 22 21 19 19 20 20 21 22 22 21 23 24 23 24 23 23 25 25 23 23 23 23 21 19 23 27 26 26 26 22 22
21 20 17 12 11 13 14 16 17 18 20 23 24 25 25 24 24 24 24 24 25 24 24 23 22 22 22 22 22 22 22 21 21 20 19 19 20 20 20 21 20 19 21 21 21 23 24 22 23 24 23 23 23 23 20 18 21 24 24 25 25 23 24
20 20 16 13 13 14 16 18 20 22 23 24 25 25 25 24 24 24 24 24 24 23 23 23 21 21 22 21 21 21 21 21 20 20 19 18 19 19 19 19 19 18 18 17 17 19 22 22 23 24 24 23 23 22 20 18 19 21 22 23 24 23 24
18 16 12 12 14 16 18 20 22 24 25 25 25 26 26 25 25 25 23 23 23 23 22 21 20 20 20 20 20 20 20 20 19 19 19 18 18 18 18 19 19 18 17 18 18 18 21 24 23 22 23 23 22 21 21 20 19 20 21 21 21 22 21
17 14 11 12 15 16 18 21 22 24 25 25 26 27 28 27 26 25 23 22 22 22 21 20 20 20 19 19 20 20 19 19 18 18 18 18 18 18 17 17 16 15 16 19 18 18 21 23 20 19 20 21 20 19 19 19 20 21 21 20 19 19 18
14 14 12 13 15 17 19 21 21 22 23 24 25 27 29 27 26 24 22 21 21 19 19 19 19 19 19 19 19 20 19 18 18 17 17 18 18 17 16 15 14 15 17 19 16 14 17 19 17 16 17 16 17 21 23 22 22 23 23 21 18 17 17
11 11 12 13 16 18 19 20 20 20 21 22 24 25 26 25 23 21 21 20 19 17 17 18 18 18 18 18 18 18 17 16 16 17 17 17 17 17 16 16 15 16 18 19 16 15 19 19 16 15 15 15 18 22 24 24 23 23 23 21 17 16 17
10 11 12 14 17 19 18 17 18 19 20 21 22 21 21 21 20 19 19 18 17 16 16 17 17 16 16 16 16 16 15 14 15 16 16 16 16 16 17 16 15 17 18 18 17 18 22 23 18 15 17 18 19 20 21 21 21 21 20 18 16 16 17
10 11 12 14 16 19 18 16 17 19 21 22 21 20 20 20 19 19 18 17 17 17 17 16 15 15 14 14 14 14 14 13 14 14 15 15 16 16 16 15 15 15 17 17 16 17 19 22 21 19 17 17 19 20 19 18 19 19 18 16 16 16 17
10 11 13 14 16 19 19 17 17 20 22 22 22 21 21 22 21 20 19 19 18 18 18 17 16 15 13 12 12 12 12 12 13 13 13 14 16 15 14 14 14 15 17 18 17 16 16 18 21 20 18 17 18 18 16 16 16 16 15 14 15 16 16
11 12 14 14 17 20 21 20 21 23 23 23 23 22 21 22 22 21 19 18 18 18 18 17 17 16 14 12 11 12 11 11 12 13 12 13 15 14 14 14 15 16 18 18 16 16 17 18 19 18 18 18 17 16 16 16 16 15 13 10 11 14 16
13 14 15 15 18 21 23 23 22 22 22 23 22 22 20 20 20 20 19 17 17 17 17 17 17 16 14 12 11 11 11 11 12 12 11 11 12 12 14 16 16 16 17 18 17 17 17 17 18 18 18 18 17 16 17 16 16 17 14 10 10 13 16
14 15 16 17 18 20 21 19 18 18 20 20 20 20 20 18 18 18 18 18 18 17 17 17 16 15 14 12 10 10 10 11 11 11 12 12 12 12 14 17 16 16 17 18 18 18 17 16 18 19 19 19 18 17 17 16 15 14 13 12 12 13 15
14 16 17 18 19 20 19 17 16 17 18 17 17 17 18 17 17 17 17 17 18 18 18 17 16 14 13 11 10 9 9 10 11 11 12 12 11 12 13 15 15 17 18 18 18 17 17 18 20 21 21 21 19 18 17 15 13 13 13 15 16 15 16
14 16 17 18 19 19 19 18 18 18 17 16 16 16 16 15 15 15 15 16 18 18 18 17 16 14 13 11 10 9 9 10 11 12 12 12 12 10 10 10 11 11 12 13 14 15 15 18 21 21 21 20 18 17 15 14 14 15 15 14 15 15 16
14 15 16 18 19 19 19 18 18 19 18 16 15 15 15 14 14 13 13 14 14 15 16 16 14 13 12 11 10 11 11 11 12 13 12 14 16 14 11 8 7 7 8 9 12 13 13 15 18 19 18 17 16 16 14 13 15 16 15 15 16 16 16
13 13 15 17 17 16 17 17 17 17 16 15 14 14 14 14 13 12 11 11 11 12 13 13 11 10 11 11 9 10 10 10 12 13 13 15 17 16 14 11 9 9 9 9 9 11 12 13 15 17 16 15 16 16 13 12 15 17 16 15 16 16 16
15 14 14 15 15 14 15 15 15 14 14 14 13 14 13 13 12 11 10 10 10 10 11 10 9 8 9 9 7 8 7 7 9 11 12 14 16 16 16 16 13 11 10 11 12 12 12 14 15 16 16 14 14 15 14 14 17 18 17 16 15 14 14
Wind_Direction
188 197 213 214 205 197 193 190 187 189 189 189 192 193 194 195 194 194 194 193 192 190 190 190 191 194 197 200 202 201 202 202 203 204 206 209 210 208 205 201 201 202 202 202 200 200 202 198 192 188 187 186 186 186 184 185 187 190 192 197 202 206 211
190 197 208 208 204 199 194 190 186 188 189 189 191 192 193 194 193 194 195 193 192 191 190 189 191 193 196 198 200 201 202 202 201 202 203 207 208 207 207 203 201 200 201 201 198 199 201 198 193 190 188 187 185 184 184 183 186 192 194 196 204 211 218
196 201 208 204 199 197 193 190 188 188 189 189 190 191 192 192 192 193 194 192 192 190 189 190 191 193 194 195 198 200 201 201 200 201 202 205 206 205 206 203 200 198 197 198 197 196 196 196 194 191 188 187 185 184 184 184 186 193 196 197 204 212 220
209 204 207 201 197 196 192 191 189 188 190 190 189 189 190 189 189 191 192 191 190 189 190 190 190 192 193 193 196 199 201 201 200 201 203 205 205 204 203 201 198 197 196 195 196 194 191 192 192 190 188 186 184 184 184 185 188 192 194 196 203 212 223
213 210 211 202 195 195 193 192 191 189 189 189 189 188 188 187 187 189 191 190 190 190 191 191 191 192 192 193 197 200 201 200 199 201 204 205 204 203 202 201 199 198 196 193 193 191 188 188 189 188 185 185 185 184 183 184 188 191 192 193 195 201 212
198 210 215 207 196 195 196 195 193 192 190 189 188 187 186 186 187 189 191 190 192 191 190 190 190 190 191 194 198 199 199 198 197 200 202 203 204 202 201 201 200 199 198 194 191 189 186 186 187 185 184 186 185 185 185 185 187 189 190 192 193 195 199
187 202 209 205 200 197 197 197 195 193 193 190 187 186 186 187 189 191 191 191 192 191 189 190 190 190 192 194 197 198 196 195 196 199 200 201 202 201 199 199 199 200 200 197 191 186 185 185 186 185 185 187 186 186 189 190 187 185 187 191 195 198 200
186 191 201 200 202 202 196 197 197 194 193 191 189 187 187 188 189 191 192 192 192 191 191 192 191 191 192 194 196 197 195 195 195 197 199 200 201 200 198 198 198 199 200 200 194 186 184 185 185 184 185 186 187 188 193 193 187 184 184 187 192 198 202
170 170 194 199 203 205 197 196 196 193 192 192 191 188 186 187 189 190 191 191 191 192 193 194 193 191 191 193 195 195 194 195 195 196 198 200 200 200 200 199 198 198 201 204 198 187 184 185 182 182 184 186 187 189 193 192 188 185 184 185 190 195 198
140 159 190 198 204 204 196 192 192 192 190 190 192 189 186 187 187 188 189 190 191 192 194 194 193 191 191 192 193 193 193 194 195 197 199 201 201 201 203 203 201 199 201 205 200 189 185 184 181 181 183 185 187 189 192 192 189 187 187 188 190 191 193
134 166 183 192 202 201 196 190 186 189 188 186 190 190 188 187 185 185 187 189 191 192 192 193 192 192 191 191 193 193 193 195 196 198 200 202 202 202 204 205 204 201 200 202 200 190 184 182 180 181 183 184 186 187 189 191 191 190 190 191 191 187 186
149 173 178 188 197 195 197 189 181 185 183 184 190 190 188 187 185 184 185 188 191 190 190 191 191 191 189 191 193 193 194 195 196 199 201 202 203 203 206 206 204 202 201 202 200 192 185 182 180 181 182 182 184 185 188 191 192 191 189 190 195 193 187
157 174 176 186 191 192 198 189 181 184 181 183 189 189 188 188 187 184 183 186 189 188 188 189 189 188 187 190 194 194 194 195 197 200 201 201 202 203 206 206 204 205 206 206 206 198 188 183 181 180 180 180 184 187 190 193 193 191 188 190 196 199 194
168 176 175 182 188 190 195 190 183 184 181 181 186 187 188 188 188 186 184 185 187 187 187 186 186 185 185 189 194 194 194 195 197 199 200 200 201 202 204 204 204 207 207 208 212 206 192 185 181 178 177 178 181 187 192 195 194 190 190 193 198 202 199
178 180 180 183 187 189 191 189 185 183 182 181 183 185 186 188 188 187 184 184 186 186 185 183 182 184 185 188 193 193 193 193 195 198 199 199 199 199 201 201 203 207 207 208 214 210 196 187 181 175 176 179 181 186 192 195 193 193 194 196 199 204 202
194 192 188 183 186 188 189 189 186 184 184 183 183 184 185 187 187 186 183 183 185 186 183 179 179 182 185 188 190 190 190 191 193 195 195 197 200 199 199 200 203 208 209 210 214 212 198 187 181 176 178 181 181 185 192 194 194 198 199 198 198 201 201
222 222 214 199 192 188 188 189 185 185 188 186 183 183 185 186 185 185 182 181 182 183 180 177 177 181 184 186 187 187 187 188 191 192 192 197 203 204 201 200 204 211 211 208 212 215 203 187 181 178 178 180 181 186 193 194 197 203 205 204 201 200 205
241 241 236 216 194 187 190 190 188 189 191 189 183 181 184 185 182 182 181 179 179 178 177 177 177 179 182 183 184 185 185 188 191 192 193 196 204 210 209 204 206 214 213 206 209 215 203 186 180 178 179 183 184 188 192 194 199 206 209 210 208 207 212
242 244 244 225 191 191 195 194 194 193 192 191 185 180 182 183 180 180 179 175 174 175 175 176 176 178 181 182 184 184 185 190 193 194 195 195 200 210 214 211 212 214 211 205 207 209 197 184 180 180 184 188 187 187 190 192 198 205 209 213 214 214 217
236 239 246 237 203 204 205 197 197 194 190 192 187 178 177 179 177 176 175 171 172 173 174 175 175 177 180 182 184 185 187 193 196 198 198 195 199 209 213 215 215 211 209 208 207 202 194 186 184 185 189 190 187 187 188 190 199 205 210 216 218 217 219
234 235 242 233 207 211 208 195 193 190 186 188 183 174 173 175 174 172 172 170 171 172 173 174 174 175 179 182 184 185 187 190 194 199 197 194 201 210 214 216 214 209 211 214 209 203 198 189 184 185 188 188 187 186 185 190 202 208 212 217 219 217 217
234 233 229 213 202 205 197 187 188 185 179 179 177 171 171 173 172 169 169 168 169 171 173 173 174 175 178 181 183 185 186 186 190 196 198 199 205 210 213 216 213 208 213 217 212 206 202 195 186 184 186 185 183 182 182 190 203 208 212 217 218 216 216
238 235 221 204 199 192 183 182 183 178 174 175 173 168 167 169 168 165 166 167 168 169 170 171 174 175 177 179 182 183 182 181 186 194 198 201 204 207 213 216 213 209 211 214 210 202 201 201 193 184 183 184 180 179 182 190 204 212 216 217 215 215 217
241 239 221 198 189 180 175 179 179 174 171 171 170 164 162 163 164 163 164 166 166 166 167 170 173 174 175 177 178 179 178 178 182 191 197 201 203 206 212 215 212 210 208 209 209 203 203 207 198 184 185 186 180 181 189 197 207 214 215 213 212 213 215
232 231 217 194 184 176 173 175 175 171 169 169 166 161 160 161 161 162 164 165 165 165 167 169 172 172 174 175 174 174 175 175 179 187 195 200 203 206 210 210 208 206 202 204 210 208 206 206 196 183 186 186 182 192 206 210 211 211 209 207 210 214 213
219 215 206 190 179 171 168 169 169 168 168 168 164 159 159 159 159 161 162 162 163 165 166 168 170 169 169 169 167 169 172 173 178 185 192 198 202 204 207 205 200 192 191 197 202 197 193 194 187 183 188 189 196 210 216 212 210 211 209 208 212 215 212
204 195 185 174 163 159 161 164 166 168 167 163 159 157 156 156 155 155 155 155 157 160 161 162 162 161 162 162 162 166 169 171 176 184 192 198 199 200 202 203 195 181 181 193 199 189 186 186 181 182 191 197 205 211 209 207 210 211 208 208 213 216 215
178 175 173 162 153 155 159 161 162 162 157 151 149 150 150 149 145 144 145 146 146 148 148 149 150 151 153 156 159 163 166 169 175 185 193 196 198 200 200 199 193 181 182 194 198 191 190 190 187 193 205 208 209 209 206 206 208 204 197 198 206 215 216
161 160 154 146 148 154 155 152 150 148 143 139 139 140 139 136 131 131 133 130 128 132 133 135 139 141 144 152 158 162 165 168 174 184 192 195 198 199 192 184 178 175 179 186 184 181 187 193 197 205 213 212 211 210 202 193 194 194 189 191 203 212 213
150 148 145 147 151 150 146 140 136 135 132 130 130 129 128 126 123 122 122 121 123 128 130 131 133 132 136 150 159 163 167 171 178 187 193 195 196 191 180 174 174 176 182 183 177 177 188 199 203 206 208 207 205 201 186 172 175 189 195 199 206 210 205
138 139 140 140 136 132 132 130 126 124 122 118 115 116 117 120 120 119 119 122 126 129 131 132 132 131 138 153 163 169 172 173 179 188 192 193 192 185 178 181 183 185 189 189 184 187 196 202 203 204 205 202 193 182 176 170 166 173 182 192 203 205 198
127 127 126 123 119 120 123 122 116 111 107 103 104 108 111 116 118 119 122 127 129 130 131 131 130 131 139 152 161 168 173 176 182 187 187 188 190 187 186 190 189 186 189 191 193 200 202 198 198 201 200 195 187 179 177 172 162 165 176 186 198 202 198
117 117 116 113 112 112 112 109 104 101 99 100 105 110 113 116 118 121 127 131 131 131 131 130 131 133 139 148 156 165 177 182 180 182 184 186 192 197 195 193 190 189 191 192 197 204 203 194 193 197 195 190 185 179 173 167 161 163 174 186 197 199 196
104 105 103 100 99 100 99 97 96 97 96 97 102 107 112 116 120 126 132 133 132 133 133 131 133 135 140 149 155 164 180 184 175 177 183 182 188 198 194 188 193 198 198 198 201 205 203 195 192 193 192 189 182 172 170 170 168 167 175 190 199 195 191
90 90 90 89 87 89 92 95 96 96 96 96 98 101 105 108 114 123 129 130 132 135 135 133 136 141 148 156 162 167 180 185 181 185 183 170 166 171 168 175 196 202 196 198 206 211 209 200 194 193 192 190 182 173 171 172 176 180 185 190 189 181 179
77 78 80 84 87 88 91 95 98 100 101 103 105 107 109 111 115 121 124 127 134 137 134 135 143 152 157 165 175 177 179 184 186 186 175 162 160 156 144 149 177 185 179 188 202 212 214 204 196 195 191 181 175 177 185 188 185 182 178 176 178 177 175
73 79 82 83 86 90 91 93 97 100 102 107 111 113 116 119 122 125 127 131 136 137 136 141 153 163 168 177 181 173 172 182 187 180 165 158 159 154 140 132 134 143 151 156 166 185 194 189 187 189 184 175 174 181 186 185 176 170 169 176 183 183 181
63 73 83 84 84 88 92 93 96 99 103 110 113 113 114 115 116 120 124 126 130 134 137 145 157 169 177 177 156 144 160 179 176 163 147 142 149 150 142 135 124 116 122 132 139 153 166 167 169 176 179 183 187 188 184 176 171 170 175 186 192 192 188